ARIANE 5 R/B, 41749

Orbit data source: Space-Track

ARIANE 5 R/B, 41749 is space debris in HEO originally from a launch on Wed, 24 Aug 2016 UTC launched from the French Guiana (FRGUI). Debris objects in space refer to the collection of defunct objects orbiting the Earth. Examples of debris include non-operational satellites, rocket bodies, and fragments generated from explosions, collisions, or faulty payload assembly.

Loading next visibility...
Identifier
41749, 2016-053C
Orbit
HEO
Last TLE update
1 day ago
Origin
Manufacturer
Airbus Safran
Mission
Spacecraft
Bus & Motor
ESC-A, Unknown motor
Mass
~5,000 kg wet, ~5,000 kg dry
Launch date (UTC)
2016-08-24 (9 years ago)
Launch vehicle
Unknown
Launch site
French Guiana (FRGUI)
Object type
Payload
Rocket body
Debris
Shape & HBR
Cyl + 1 Nozzle, 7 m
Radar Cross Section
41.627 m², Large (>1 m²)

Expand to show TLE details & history

TLE from 1 day ago
0 ARIANE 5 R/B
1 41749U 16053C   25162.57381837  .00001240  00000-0  53755-3 0  9993
2 41749   5.9022 200.1254 7142614  13.5340 358.5937  2.43976794 75306
Epoch: 2025-06-11T13:46Z
TLE epoch observation values (Epoch: 2025-06-11T13:46:17.907Z)
Latitude
-0.00006°
Longitude
93.3952°
Altitude
359.944 km
Speed
10.06 km/s
True Right ascension
13h 20m 29s
True Declination
0° 00' 00"
Sunlit
Object was in full shadow at epoch
Visualization orbit readout
Latitude
-3.2906°
Longitude
-53.10964°
Altitude
28,559.715 km
Speed
2.391 km/s
Apparent Right ascension
03h 41m 22s
Apparent Declination
-11° 24' 57"
Sunlit
Object is in daylight
Visualization observer readout
Local Sidereal Time
02:51:50
Azimuth
164.655° S
Elevation
37.395°
Doppler factor
1
Orbital elements
Apogee altitude
33,586.992 km
Perigee altitude
283.379 km
Semi-major axis
23,313.322 km
Eccentricity
0.71426
Inclination
5.9022°
RAAN
200.1254°
Arg. of periapsis
13.534°
True anomaly
Unknown
Mean anomaly
358.5937°
Eccentric anomaly
Unknown
Mean motion
0.60973 °/min
Orbital period
590.43 mins
BSTAR
0.00053755
Loading maneuver chart data...
Loading SW <> Apogee altitude chart data...
Loading historical data...
Loading historical data...
Loading historical data...
Loading historical data...
Loading historical data...
Loading historical data...
Loading historical data...

ARIANE 5 R/B Visibility forecast

Observer location: undefined°, undefined°

Span
Click to sort rows by Start time (UTC) header in descending order
Start Az.
Max El. time (UTC)
Max El. Az.
Max El.
End time (UTC)
End Az.
134 mins2025-06-12 16:27:18.796Z164.662° S2025-06-12 16:27:18.796Z164.662° S31.26°2025-06-12 18:41:18.796Z141.281° SSE
21 mins2025-06-13 16:06:18.796Z248.624° W2025-06-13 16:27:18.796Z244.427° WSW15.787°2025-06-13 16:27:18.796Z244.427° WSW
|